Location: Boone Canyon
(38.3180°N, 119.2504°W)
Time: 17:06:36
(UTC+00:00)

X-37B - Pass Details

Date: 18 September 2020
Orbit: 382 x 392 km, 45.0° (Epoch: 15 October)

Event Time Altitude Azimuth Distance (km) Brightness Sun altitude
Exits shadow 12:38:40 12° 312° (NW) 1,300 2.9 -13.1°
Maximum altitude 12:40:59 24° 5° (N) 852 2.5 -12.6°
Drops below altitude 10° 12:43:37 10° 62° (ENE) 1,405 4.7 -12.1°
Sets 12:45:57 0° 77° (ENE) 2,260 6.7 -11.7°
